Regional Weather Roundup
Issued by NWS

Home | Current Version | Previous Version | Graphics & Text | Print | Product List | Glossary On
Versions: 1 2 3 4 5 6 7 8 9 10 11 12 13 14 15 16 17 18 19 20 21 22 23 24 25 26 27 28 29 30 31 32 33 34 35 36 37 38 39 40 41 42 43 44 45 46 47 48 49 50
000
ASUS43 KFSD 230410
RWRSD

WEATHER ROUNDUP FOR SOUTH DAKOTA
NATIONAL WEATHER SERVICE SIOUX FALLS SD
1100 PM CDT MON SEP 22 2014

NOTE: "FAIR" INDICATES FEW OR NO CLOUDS BELOW 12,000 FEET WITH NO
SIGNIFICANT WEATHER AND/OR OBSTRUCTIONS TO VISIBILITY.


SDZ001>005-009-010-012>017-230500-
NORTHWEST AND NORTH CENTRAL SOUTH DAKOTA

CITY           SKY/WX    TMP DP  RH WIND       PRES   REMARKS
BUFFALO          N/A     62  51  67 SE9       29.84S
FAITH            N/A     63  53  70 SE15      29.91S
MOBRIDGE       PTCLDY    67  54  63 S16G25    29.94S
$$

SDZ012>016-024>037-041>051-057-063-072>074-230500-
SOUTHWEST AND SOUTH CENTRAL SOUTH DAKOTA

CITY           SKY/WX    TMP DP  RH WIND       PRES   REMARKS
RAPID CTY ARPT CLOUDY    63  55  75 S5        29.95S
PIERRE         CLOUDY    63  53  70 S18       29.98S
CUSTER         CLOUDY    55  51  86 W3        30.08F
ELLSWORTH AFB  CLOUDY    65  56  74 S7        29.94S
PHILIP         RAIN      60  55  83 S16       29.96R
PINE RIDGE     MOCLDY    64  53  67 S14       29.99F
WINNER         FAIR      64  54  69 S21G26    30.03F
$$

SDZ004>011-016>023-039-040-230500-
NORTHEAST SOUTH DAKOTA

CITY           SKY/WX    TMP DP  RH WIND       PRES   REMARKS
ABERDEEN       CLEAR     62  49  62 S14       30.04S
WATERTOWN      CLEAR     56  48  74 S12       30.11S
SISSETON         N/A     54  49  83 S6        30.06F
$$

SDZ017-020-022-023-036>040-048>070-230500-
SOUTHEAST SOUTH DAKOTA

CITY           SKY/WX    TMP DP  RH WIND       PRES   REMARKS
SIOUX FALLS    MOCLDY    61  49  64 S9        30.15S
HURON          PTCLDY    64  49  57 S10       30.07S
CHAMBERLAIN    CLOUDY    65  52  62 S13       30.05S
MITCHELL       CLOUDY    65  52  62 SE12      30.09S
YANKTON        MOCLDY    63  48  59 SE9       30.14S
$$

ABBREVIATIONS USED IN REMARKS
   TC - TEMPERATURE IN CELSIUS
  WCI - WIND CHILL INDEX
   HX - HEAT INDEX
  VSB - VISIBILITY




USA.gov is the U.S. government's official web portal to all federal, state and local government web resources and services.